Time,TemperatureF,DewpointF,PressureIn,WindDirection,WindDirectionDegrees,WindSpeedMPH,WindSpeedGustMPH,Humidity,HourlyPrecipIn,Conditions,Clouds,dailyrainin,SoftwareType,DateUTC
2013-03-01 00:12:00,10.5,6.0,29.51,SE,137,0.0,0.0,83,0.00,,,0.00,weatherlink.com 1.10,2013-03-01 09:12:00,
2013-03-01 00:27:00,10.4,7.0,29.52,SE,137,0.0,0.0,84,0.00,,,0.00,weatherlink.com 1.10,2013-03-01 09:27:00,
2013-03-01 00:42:00,10.0,6.0,29.52,SE,137,0.0,0.0,85,0.00,,,0.00,weatherlink.com 1.10,2013-03-01 09:42:00,
2013-03-01 00:57:00,10.0,6.0,29.52,SE,137,0.0,0.0,85,0.00,,,0.00,weatherlink.com 1.10,2013-03-01 09:57:00,
2013-03-01 01:12:00,9.8,6.0,29.53,SE,137,0.0,0.0,83,0.00,,,0.00,weatherlink.com 1.10,2013-03-01 10:12:00,
2013-03-01 01:27:00,8.9,5.0,29.54,SE,137,0.0,0.0,83,0.00,,,0.00,weatherlink.com 1.10,2013-03-01 10:27:00,
2013-03-01 01:42:00,8.4,4.0,29.55,SE,137,0.0,0.0,83,0.00,,,0.00,weatherlink.com 1.10,2013-03-01 10:42:00,
2013-03-01 01:57:00,7.9,4.0,29.55,SE,137,0.0,0.0,83,0.00,,,0.00,weatherlink.com 1.10,2013-03-01 10:57:00,
2013-03-01 02:12:00,7.9,4.0,29.56,SE,137,0.0,0.0,83,0.00,,,0.00,weatherlink.com 1.10,2013-03-01 11:12:00,
2013-03-01 02:27:00,8.1,4.0,29.56,SE,137,0.0,0.0,82,0.00,,,0.00,weatherlink.com 1.10,2013-03-01 11:27:00,
2013-03-01 02:42:00,8.0,4.0,29.57,SE,137,0.0,0.0,82,0.00,,,0.00,weatherlink.com 1.10,2013-03-01 11:42:00,
2013-03-01 02:57:00,7.8,3.0,29.58,SE,139,0.0,0.0,81,0.00,,,0.00,weatherlink.com 1.10,2013-03-01 11:57:00,
2013-03-01 03:12:00,7.3,3.0,29.59,SE,139,0.0,0.0,81,0.00,,,0.00,weatherlink.com 1.10,2013-03-01 12:12:00,
2013-03-01 03:27:00,7.0,3.0,29.59,SE,139,0.0,0.0,82,0.00,,,0.00,weatherlink.com 1.10,2013-03-01 12:27:00,
2013-03-01 03:42:00,6.9,2.0,29.59,SE,139,0.0,0.0,81,0.00,,,0.00,weatherlink.com 1.10,2013-03-01 12:42:00,
2013-03-01 03:57:00,7.2,2.0,29.60,SE,139,0.0,0.0,80,0.00,,,0.00,weatherlink.com 1.10,2013-03-01 12:57:00,
2013-03-01 04:12:00,6.9,3.0,29.61,SE,139,0.0,0.0,82,0.00,,,0.00,weatherlink.com 1.10,2013-03-01 13:12:00,
2013-03-01 04:27:00,6.6,2.0,29.62,SE,139,0.0,0.0,82,0.00,,,0.00,weatherlink.com 1.10,2013-03-01 13:27:00,
2013-03-01 04:42:00,6.5,2.0,29.63,SE,139,0.0,0.0,82,0.00,,,0.00,weatherlink.com 1.10,2013-03-01 13:42:00,
2013-03-01 04:57:00,6.5,2.0,29.63,SE,139,0.0,0.0,82,0.00,,,0.00,weatherlink.com 1.10,2013-03-01 13:57:00,
2013-03-01 05:12:00,6.3,2.0,29.64,SE,139,0.0,0.0,81,0.00,,,0.00,weatherlink.com 1.10,2013-03-01 14:12:00,
2013-03-01 05:27:00,6.2,2.0,29.64,SE,139,0.0,0.0,81,0.00,,,0.00,weatherlink.com 1.10,2013-03-01 14:27:00,
2013-03-01 05:42:00,6.1,2.0,29.65,SE,139,0.0,0.0,81,0.00,,,0.00,weatherlink.com 1.10,2013-03-01 14:42:00,
2013-03-01 05:58:00,5.9,2.0,29.66,SE,139,0.0,0.0,82,0.00,,,0.00,weatherlink.com 1.10,2013-03-01 14:58:00,
2013-03-01 06:13:00,5.7,1.0,29.66,SE,139,0.0,0.0,82,0.00,,,0.00,weatherlink.com 1.10,2013-03-01 15:13:00,
2013-03-01 06:28:00,5.6,1.0,29.67,SE,139,0.0,0.0,82,0.00,,,0.00,weatherlink.com 1.10,2013-03-01 15:28:00,
2013-03-01 06:43:00,5.6,1.0,29.67,SE,139,0.0,0.0,82,0.00,,,0.00,weatherlink.com 1.10,2013-03-01 15:43:00,
2013-03-01 06:58:00,5.4,1.0,29.68,SE,139,0.0,0.0,82,0.00,,,0.00,weatherlink.com 1.10,2013-03-01 15:58:00,
2013-03-01 07:13:00,5.5,1.0,29.68,SE,139,0.0,0.0,82,0.00,,,0.00,weatherlink.com 1.10,2013-03-01 16:13:00,
2013-03-01 07:28:00,5.8,1.0,29.69,West,262,0.0,0.0,81,0.00,,,0.00,weatherlink.com 1.10,2013-03-01 16:28:00,
2013-03-01 07:43:00,6.7,2.0,29.69,East,85,0.0,1.0,79,0.00,,,0.00,weatherlink.com 1.10,2013-03-01 16:43:00,
2013-03-01 07:58:00,6.1,1.0,29.70,East,85,0.0,0.0,80,0.00,,,0.00,weatherlink.com 1.10,2013-03-01 16:58:00,
2013-03-01 08:13:00,6.5,1.0,29.71,NW,311,0.0,0.0,79,0.00,,,0.00,weatherlink.com 1.10,2013-03-01 17:13:00,
2013-03-01 08:28:00,6.9,2.0,29.72,WNW,297,0.0,1.0,79,0.00,,,0.00,weatherlink.com 1.10,2013-03-01 17:28:00,
2013-03-01 08:43:00,6.9,1.0,29.73,WSW,249,0.0,1.0,78,0.00,,,0.00,weatherlink.com 1.10,2013-03-01 17:43:00,
2013-03-01 08:58:00,7.2,1.0,29.73,WSW,249,0.0,0.0,77,0.00,,,0.00,weatherlink.com 1.10,2013-03-01 17:58:00,
2013-03-01 09:13:00,7.3,2.0,29.74,WSW,249,0.0,0.0,77,0.00,,,0.00,weatherlink.com 1.10,2013-03-01 18:13:00,
2013-03-01 09:28:00,7.7,2.0,29.75,WNW,293,0.0,0.0,76,0.00,,,0.00,weatherlink.com 1.10,2013-03-01 18:28:00,
2013-03-01 09:43:00,8.0,2.0,29.75,East,79,0.0,1.0,75,0.00,,,0.00,weatherlink.com 1.10,2013-03-01 18:43:00,
2013-03-01 09:58:00,8.1,1.0,29.76,WNW,300,0.0,1.0,73,0.00,,,0.00,weatherlink.com 1.10,2013-03-01 18:58:00,
2013-03-01 10:13:00,8.7,2.0,29.77,ESE,108,0.0,1.0,74,0.00,,,0.00,weatherlink.com 1.10,2013-03-01 19:13:00,
2013-03-01 10:28:00,9.0,2.0,29.77,ESE,106,0.0,1.0,74,0.00,,,0.00,weatherlink.com 1.10,2013-03-01 19:28:00,
2013-03-01 10:58:00,9.8,3.0,29.79,ESE,112,0.0,1.0,75,0.00,,,0.00,weatherlink.com 1.10,2013-03-01 19:58:00,
2013-03-01 11:13:00,10.4,4.0,29.79,SE,127,0.0,0.0,75,0.00,,,0.00,weatherlink.com 1.10,2013-03-01 20:13:00,
2013-03-01 11:28:00,10.8,4.0,29.80,ESE,103,0.0,1.0,75,0.00,,,0.00,weatherlink.com 1.10,2013-03-01 20:28:00,
2013-03-01 11:43:00,10.7,5.0,29.81,ESE,122,0.0,2.0,77,0.00,,,0.00,weatherlink.com 1.10,2013-03-01 20:43:00,
2013-03-01 11:58:00,11.2,5.0,29.82,SE,138,0.0,2.0,77,0.00,,,0.00,weatherlink.com 1.10,2013-03-01 20:58:00,
2013-03-01 12:13:00,11.4,5.0,29.83,WSW,252,0.0,2.0,76,0.00,,,0.00,weatherlink.com 1.10,2013-03-01 21:13:00,
2013-03-01 12:28:00,11.7,5.0,29.83,West,272,0.0,1.0,75,0.00,,,0.00,weatherlink.com 1.10,2013-03-01 21:28:00,
2013-03-01 12:43:00,11.6,5.0,29.84,SE,139,0.0,2.0,76,0.00,,,0.00,weatherlink.com 1.10,2013-03-01 21:43:00,
2013-03-01 12:58:00,11.8,6.0,29.84,ENE,65,0.0,1.0,77,0.00,,,0.00,weatherlink.com 1.10,2013-03-01 21:58:00,
2013-03-01 13:13:00,11.9,6.0,29.85,SE,140,0.0,1.0,77,0.00,,,0.00,weatherlink.com 1.10,2013-03-01 22:13:00,
2013-03-01 13:29:00,12.6,7.0,29.86,SSE,158,0.0,0.0,77,0.00,,,0.00,weatherlink.com 1.10,2013-03-01 22:29:00,
2013-03-01 13:44:00,13.3,6.0,29.86,East,83,0.0,1.0,74,0.00,,,0.00,weatherlink.com 1.10,2013-03-01 22:44:00,
2013-03-01 13:59:00,13.4,6.0,29.86,ESE,111,0.0,0.0,72,0.00,,,0.00,weatherlink.com 1.10,2013-03-01 22:59:00,
2013-03-01 14:14:00,13.3,6.0,29.86,SE,133,0.0,2.0,74,0.00,,,0.00,weatherlink.com 1.10,2013-03-01 23:14:00,
2013-03-01 14:29:00,13.8,7.0,29.87,SE,146,0.0,1.0,75,0.00,,,0.00,weatherlink.com 1.10,2013-03-01 23:29:00,
2013-03-01 14:44:00,14.0,7.0,29.88,SSE,164,0.0,2.0,75,0.00,,,0.00,weatherlink.com 1.10,2013-03-01 23:44:00,
2013-03-01 14:59:00,13.8,7.0,29.88,SSW,210,0.0,1.0,75,0.00,,,0.00,weatherlink.com 1.10,2013-03-01 23:59:00,
2013-03-01 15:14:00,13.6,7.0,29.89,SE,127,0.0,1.0,76,0.00,,,0.00,weatherlink.com 1.10,2013-03-02 00:14:00,
2013-03-01 15:29:00,13.9,8.0,29.89,SSE,155,0.0,2.0,77,0.00,,,0.00,weatherlink.com 1.10,2013-03-02 00:29:00,
2013-03-01 15:44:00,13.7,7.0,29.90,SE,141,0.0,2.0,76,0.00,,,0.00,weatherlink.com 1.10,2013-03-02 00:44:00,
2013-03-01 15:59:00,13.2,8.0,29.90,East,82,0.0,1.0,78,0.00,,,0.00,weatherlink.com 1.10,2013-03-02 00:59:00,
2013-03-01 16:14:00,13.2,8.0,29.91,South,189,0.0,0.0,79,0.00,,,0.00,weatherlink.com 1.10,2013-03-02 01:14:00,
2013-03-01 16:29:00,12.8,8.0,29.92,SE,145,0.0,1.0,80,0.00,,,0.00,weatherlink.com 1.10,2013-03-02 01:29:00,
2013-03-01 16:59:00,12.0,8.0,29.93,WSW,242,0.0,0.0,82,0.00,,,0.00,weatherlink.com 1.10,2013-03-02 01:59:00,
2013-03-01 17:14:00,11.8,7.0,29.93,West,259,0.0,1.0,82,0.00,,,0.00,weatherlink.com 1.10,2013-03-02 02:14:00,
2013-03-01 17:29:00,11.5,7.0,29.93,South,191,0.0,0.0,82,0.00,,,0.00,weatherlink.com 1.10,2013-03-02 02:29:00,
2013-03-01 17:44:00,11.2,7.0,29.94,South,191,0.0,0.0,82,0.00,,,0.00,weatherlink.com 1.10,2013-03-02 02:44:00,
2013-03-01 17:59:00,10.9,7.0,29.94,South,191,0.0,0.0,83,0.00,,,0.00,weatherlink.com 1.10,2013-03-02 02:59:00,
2013-03-01 18:14:00,10.6,7.0,29.95,South,191,0.0,0.0,84,0.00,,,0.00,weatherlink.com 1.10,2013-03-02 03:14:00,
2013-03-01 18:29:00,10.5,7.0,29.96,South,191,0.0,0.0,84,0.00,,,0.00,weatherlink.com 1.10,2013-03-02 03:29:00,
2013-03-01 18:44:00,10.3,6.0,29.96,South,191,0.0,0.0,84,0.00,,,0.00,weatherlink.com 1.10,2013-03-02 03:44:00,
2013-03-01 18:59:00,10.2,6.0,29.97,South,191,0.0,0.0,84,0.00,,,0.00,weatherlink.com 1.10,2013-03-02 03:59:00,
2013-03-01 19:15:00,10.1,7.0,29.97,South,191,0.0,0.0,85,0.00,,,0.00,weatherlink.com 1.10,2013-03-02 04:15:00,
2013-03-01 19:29:00,10.1,7.0,29.98,South,191,0.0,0.0,85,0.00,,,0.00,weatherlink.com 1.10,2013-03-02 04:29:00,
2013-03-01 19:44:00,10.1,7.0,29.98,South,191,0.0,0.0,85,0.00,,,0.00,weatherlink.com 1.10,2013-03-02 04:44:00,
2013-03-01 19:59:00,10.1,7.0,29.98,South,191,0.0,0.0,85,0.00,,,0.00,weatherlink.com 1.10,2013-03-02 04:59:00,
2013-03-01 20:14:00,10.0,6.0,29.99,South,191,0.0,0.0,85,0.00,,,0.00,weatherlink.com 1.10,2013-03-02 05:14:00,
2013-03-01 20:29:00,10.0,7.0,30.00,South,191,0.0,0.0,86,0.00,,,0.00,weatherlink.com 1.10,2013-03-02 05:29:00,
2013-03-01 20:44:00,9.8,7.0,30.00,South,191,0.0,0.0,86,0.00,,,0.00,weatherlink.com 1.10,2013-03-02 05:44:00,
2013-03-01 20:59:00,9.6,6.0,30.01,South,191,0.0,0.0,86,0.00,,,0.00,weatherlink.com 1.10,2013-03-02 05:59:00,
2013-03-01 21:14:00,9.4,6.0,30.01,South,191,0.0,0.0,86,0.00,,,0.00,weatherlink.com 1.10,2013-03-02 06:14:00,
2013-03-01 21:29:00,9.4,6.0,30.01,South,191,0.0,0.0,86,0.00,,,0.00,weatherlink.com 1.10,2013-03-02 06:29:00,
2013-03-01 21:44:00,9.4,6.0,30.01,South,191,0.0,0.0,86,0.00,,,0.00,weatherlink.com 1.10,2013-03-02 06:44:00,
2013-03-01 21:59:00,9.3,6.0,30.02,South,191,0.0,0.0,86,0.00,,,0.00,weatherlink.com 1.10,2013-03-02 06:59:00,
2013-03-01 22:14:00,9.2,6.0,30.02,South,191,0.0,0.0,86,0.00,,,0.00,weatherlink.com 1.10,2013-03-02 07:14:00,
2013-03-01 22:30:00,9.1,6.0,30.02,South,191,0.0,0.0,86,0.00,,,0.00,weatherlink.com 1.10,2013-03-02 07:30:00,
2013-03-01 22:45:00,8.9,6.0,30.03,South,191,0.0,0.0,86,0.00,,,0.00,weatherlink.com 1.10,2013-03-02 07:45:00,
2013-03-01 23:00:00,8.6,5.0,30.03,South,191,0.0,0.0,85,0.00,,,0.00,weatherlink.com 1.10,2013-03-02 08:00:00,
2013-03-01 23:15:00,7.9,4.0,30.04,South,191,0.0,0.0,85,0.00,,,0.00,weatherlink.com 1.10,2013-03-02 08:15:00,
2013-03-01 23:30:00,7.3,4.0,30.04,South,191,0.0,0.0,84,0.00,,,0.00,weatherlink.com 1.10,2013-03-02 08:30:00,
2013-03-01 23:45:00,6.8,3.0,30.05,South,191,0.0,0.0,85,0.00,,,0.00,weatherlink.com 1.10,2013-03-02 08:45:00,